Zurück zum Katalog

TATIANA 2

AktivWissenschaftSSO
NORAD 35868·PAYLOAD·🇷🇺 Russia

Gestartet Sep 17, 2009 von Baikonur Cosmodrome

Loading…

Nächste Überflüge (nächste 24 Stunden)

TLE

AktuellSource: Space-Track

Epoche: Sep 14, 2026, 07:08 UTC

1 35868U 09049D   26257.29769127  .00000101  00000-0  63059-4 0  9996
2 35868  98.7290 218.8288 0004571  28.3241 331.8185 14.24254576882378

Verfolge TATIANA 2 in Echtzeit mit AllMySat

Download on the App Store